全球星 M048星 (GLOBALSTAR M048)

导读

GLOBALSTAR M048是美国全球星系统第一代低轨移动通信卫星,于1999年7月25日发射入轨,隶属于全球覆盖的卫星通信星座。作为全球星空间段的组成部分,它运行于约1414千米高度的中低轨道,采用弯管式转发技术,提供数字语音、数据传输等移动通信服务,填补了地面网络覆盖盲区,助力实现全球范围内的个人移动通信互联。

基本信息
目录编号:
25872
目录名称:
GLOBALSTAR M048
国际标识:
1999-041A
轨道中心:
EARTH
卫星名称:
全球星 M048星
卫星全名:
全球星 M048星 (GLOBALSTAR M048)
卫星状态:
在轨 (已飞行9819 天)
发射日期:
1999-07-25 UTC
国别 :
(GLOB)
星等 :
--
轨道信息
数据来源 国际轨道数据 AOE轨道数据
星历时间 2026-06-12T13:46:15+0800
14小时前
查看轨道信息
2026-06-12T03:00:00+0800
1天前
查看轨道信息
半长轴 8369.402km 8369.405km
偏心率 0.0012748 0.0012776
轨道倾角 51.934° 51.934°
近地点辐角 89.853° 88.400°
升交点赤经 201.258° 202.324°
平近点角 346.109° 314.903°
近地点 1980.595km 1980.575km
远地点 2001.935km 2001.961km
周期 126.999分钟 126.999分钟
每日圈数 11.338644 11.338639
详细信息
固有亮度:
5
最大亮度:
7.9
平衡模式:
三轴稳定
覆盖范围:
全球
运营商:
全球星公司
运营商所在国:
美国
使用方式:
暂无
卫星简介
全球星星座由48颗卫星加8颗备份星组成。这些卫星分布在8个倾角为52度的圆形轨道平面上,每个轨道平面6颗卫星,另有1 颗备用星。轨道高度约为1414km,传输时延和处理时延小于300ms,整个系统的覆盖区为南北纬70度以内的地区。该卫星已退役。
2D轨道图
3D轨道图
轨道高度分析图
轨道倾角分析图
轨道综合分析图
查看轨道综合分析图